This demonstration page uses our WeatherBlox Daily Observations layout. Learn more.

Hourly Observations for January 31, 2017

Temp ( °F °C ) Dew Point ( °F °C ) Humidity (%) Winds ( mph kmh ) Pressure ( in mb ) Visibility ( mi km ) Precip ( " mm )
12:54 am 00:54 Clear 42 5.6 25 -3.9 51 51 NW 10 17 29.95 1014 10 16.0934 0 0
1:54 am 01:54 Clear 40 4.4 26 -3.3 58 58 NW 9 15 29.96 1015 10 16.0934 0 0
2:54 am 02:54 Clear 38 3.3 27 -2.8 65 65 W 6 9 29.98 1015 10 16.0934 0 0
3:54 am 03:54 Clear 37 2.8 27 -2.8 67 67 W 5 7 29.98 1015 10 16.0934 0 0
4:54 am 04:54 Clear 37 2.8 27 -2.8 67 67 W 5 7 30 1016 10 16.0934 0 0
5:54 am 05:54 Clear 35 1.7 27 -2.8 72 72 WNW 5 7 30 1016 10 16.0934 0 0
6:54 am 06:54 Clear 35 1.7 28 -2.2 76 76 NNW 6 9 30.01 1016 10 16.0934 0 0
7:54 am 07:54 Mostly Sunny 35 1.7 28 -2.2 76 76 WSW 8 13 30.01 1016 10 16.0934 0 0
8:54 am 08:54 Mostly Cloudy 37 2.8 29 -1.7 73 73 W 6 9 30.03 1017 10 16.0934 0 0
9:54 am 09:54 Mostly Sunny 40 4.4 30 -1.1 68 68 W 9 15 30.05 1018 10 16.0934 0 0
10:54 am 10:54 Mostly Cloudy 42 5.6 29 -1.7 60 60 WNW 10 17 30.04 1017 10 16.0934 0 0
11:54 am 11:54 Cloudy 43 6.1 29 -1.7 58 58 NW 9 15 30.04 1017 10 16.0934 0 0
12:54 pm 12:54 Mostly Cloudy 44 6.7 29 -1.7 55 55 N 9 15 30.02 1017 10 16.0934 0 0
1:54 pm 13:54 Mostly Sunny 44 6.7 29 -1.7 55 55 NNW 8 13 29.99 1016 10 16.0934 0 0
2:54 pm 14:54 Partly Cloudy 44 6.7 27 -2.8 51 51 N 7 11 29.99 1016 10 16.0934 0 0
3:54 pm 15:54 Cloudy 43 6.1 28 -2.2 56 56 N 5 7 30 1016 10 16.0934 0 0
4:54 pm 16:54 Mostly Cloudy 40 4.4 27 -2.8 60 60 Calm 30.01 1016 10 16.0934 0 0
5:54 pm 17:54 Cloudy 37 2.8 28 -2.2 70 70 NE 6 9 30.03 1017 10 16.0934 0 0
6:54 pm 18:54 Partly Cloudy 36 2.2 28 -2.2 73 73 N 5 7 30.06 1018 10 16.0934 0 0
7:54 pm 19:54 Mostly Clear 34 1.1 28 -2.2 79 79 N 7 11 30.08 1019 10 16.0934 0 0
8:54 pm 20:54 Mostly Cloudy 36 2.2 27 -2.8 70 70 NNW 6 9 30.1 1019 10 16.0934 0 0
9:54 pm 21:54 Clear 33 0.6 28 -2.2 82 82 N 8 13 30.11 1020 10 16.0934 0 0
10:54 pm 22:54 Partly Cloudy 34 1.1 27 -2.8 76 76 N 9 15 30.13 1020 10 16.0934 0 0
11:54 pm 23:54 Cloudy 33 0.6 28 -2.2 82 82 N 6 9 30.15 1021 10 16.0934 0 0

Powered by AerisWeather